| time (UTC) | temp F | wind direction | speed MPH | gust MPH | rain 1hr in | rain 24hr in | rain mn in | humidity % | barometer mb |
| 20260831084416 | 76 | 265 | 8.0 | 9.0 | 0.00 | 0.00 | 0.00 | 36 | 1012.5 |
| 20260831083912 | 76 | 236 | 11.0 | 13.0 | 0.00 | 0.00 | 0.00 | 37 | 1012.4 |
| 20260831083407 | 76 | 251 | 12.0 | 16.0 | 0.00 | 0.00 | 0.00 | 37 | 1012.4 |
| 20260831082906 | 76 | 269 | 8.0 | 11.0 | 0.00 | 0.00 | 0.00 | 37 | 1012.5 |
| 20260831082406 | 76 | 242 | 9.0 | 10.0 | 0.00 | 0.00 | 0.00 | 37 | 1012.6 |
| 20260831081902 | 76 | 266 | 7.0 | 8.0 | 0.00 | 0.00 | 0.00 | 38 | 1012.4 |
| 20260831081357 | 76 | 245 | 9.0 | 10.0 | 0.00 | 0.00 | 0.00 | 39 | 1012.1 |
| 20260831080853 | 76 | 255 | 5.0 | 6.0 | 0.00 | 0.00 | 0.00 | 39 | 1012.5 |
| 20260831080348 | 76 | 209 | 6.0 | 9.0 | 0.00 | 0.00 | 0.00 | 39 | 1012.5 |
| 20260831075843 | 75 | 257 | 1.0 | 1.0 | 0.00 | 0.00 | 0.00 | 41 | 1012.7 |
| 20260831075338 | 75 | 247 | 2.0 | 2.0 | 0.00 | 0.00 | 0.00 | 41 | 1012.8 |
| 20260831074833 | 76 | 256 | 1.0 | 1.0 | 0.00 | 0.00 | 0.00 | 41 | 1012.7 |
| 20260831074332 | 76 | 247 | 3.0 | 3.0 | 0.00 | 0.00 | 0.00 | 41 | 1012.9 |
| 20260831073828 | 76 | 255 | 4.0 | 6.0 | 0.00 | 0.00 | 0.00 | 41 | 1012.7 |
| 20260831073327 | 76 | 250 | 6.0 | 7.0 | 0.00 | 0.00 | 0.00 | 41 | 1012.7 |
| 20260831072823 | 75 | 233 | 6.0 | 7.0 | 0.00 | 0.00 | 0.00 | 42 | 1012.7 |
| 20260831072318 | 75 | 222 | 7.0 | 7.0 | 0.00 | 0.00 | 0.00 | 42 | 1012.8 |
| 20260831071809 | 75 | 243 | 4.0 | 5.0 | 0.00 | 0.00 | 0.00 | 44 | 1012.7 |
| 20260831071308 | 75 | 251 | 9.0 | 10.0 | 0.00 | 0.00 | 0.00 | 43 | 1012.7 |
| 20260831070803 | 75 | 233 | 8.0 | 8.0 | 0.00 | 0.00 | 0.00 | 42 | 1012.6 |
| 20260831070302 | 75 | 241 | 11.0 | 13.0 | 0.00 | 0.00 | 0.00 | 42 | 1012.6 |
| 20260831065801 | 75 | 266 | 9.0 | 11.0 | 0.00 | 0.00 | 0.00 | 40 | 1012.7 |
| 20260831065259 | 76 | 238 | 10.0 | 11.0 | 0.00 | 0.00 | 0.00 | 38 | 1012.9 |
| 20260831064754 | 77 | 255 | 10.0 | 10.0 | 0.00 | 0.00 | 0.00 | 37 | 1012.8 |
| 20260831064254 | 77 | 227 | 9.0 | 10.0 | 0.00 | 0.00 | 0.00 | 37 | 1012.9 |
| 20260831063750 | 77 | 251 | 8.0 | 10.0 | 0.00 | 0.00 | 0.00 | 37 | 1012.8 |
| 20260831063246 | 77 | 245 | 11.0 | 14.0 | 0.00 | 0.00 | 0.00 | 37 | 1012.9 |
| 20260831062745 | 76 | 190 | 10.0 | 14.0 | 0.00 | 0.00 | 0.00 | 39 | 1012.7 |
| 20260831062235 | 76 | 281 | 5.0 | 7.0 | 0.00 | 0.00 | 0.00 | 40 | 1012.7 |
| 20260831061733 | 76 | 268 | 4.0 | 6.0 | 0.00 | 0.00 | 0.00 | 40 | 1012.7 |
| 20260831061228 | 77 | 243 | 2.0 | 2.0 | 0.00 | 0.00 | 0.00 | 40 | 1012.7 |
| 20260831060725 | 76 | 267 | 5.0 | 6.0 | 0.00 | 0.00 | 0.00 | 40 | 1012.8 |
| 20260831060225 | 74 | 244 | 2.0 | 2.0 | 0.00 | 0.00 | 0.00 | 47 | 1012.9 |
| 20260831055724 | 73 | 243 | 2.0 | 2.0 | 0.00 | 0.00 | 0.00 | 47 | 1013.0 |
| 20260831055224 | 73 | 222 | 0.0 | 0.0 | 0.00 | 0.00 | 0.00 | 49 | 1013.0 |
| 20260831054719 | 73 | 210 | 0.0 | 0.0 | 0.00 | 0.00 | 0.00 | 49 | 1012.8 |
| 20260831054214 | 73 | 317 | 3.0 | 3.0 | 0.00 | 0.00 | 0.00 | 48 | 1012.9 |
| 20260831053708 | 74 | 255 | 0.0 | 0.0 | 0.00 | 0.00 | 0.00 | 47 | 1012.8 |
| 20260831053207 | 74 | 250 | 1.0 | 1.0 | 0.00 | 0.00 | 0.00 | 47 | 1012.9 |
| 20260831052706 | 75 | 263 | 3.0 | 3.0 | 0.00 | 0.00 | 0.00 | 47 | 1013.0 |
| 20260831052206 | 75 | 327 | 5.0 | 7.0 | 0.00 | 0.00 | 0.00 | 47 | 1012.9 |
| 20260831051704 | 75 | 341 | 6.0 | 7.0 | 0.00 | 0.00 | 0.00 | 48 | 1012.6 |
| 20260831051203 | 75 | 355 | 6.0 | 7.0 | 0.00 | 0.00 | 0.00 | 48 | 1013.1 |
| 20260831050703 | 75 | 322 | 5.0 | 6.0 | 0.00 | 0.00 | 0.00 | 49 | 1013.2 |
| 20260831050202 | 75 | 6 | 10.0 | 11.0 | 0.00 | 0.00 | 0.00 | 48 | 1012.6 |
| 20260831045657 | 75 | 33 | 3.0 | 3.0 | 0.00 | 0.00 | 0.00 | 49 | 1012.7 |
| 20260831045151 | 77 | 285 | 4.0 | 7.0 | 0.00 | 0.00 | 0.00 | 44 | 1012.8 |
| 20260831044646 | 77 | 245 | 8.0 | 9.0 | 0.00 | 0.00 | 0.00 | 43 | 1012.7 |
| 20260831044141 | 77 | 216 | 12.0 | 15.0 | 0.00 | 0.00 | 0.00 | 45 | 1012.5 |
| 20260831043637 | 77 | 239 | 16.0 | 18.0 | 0.00 | 0.00 | 0.00 | 46 | 1012.7 |
| 20260831043132 | 77 | 257 | 13.0 | 16.0 | 0.00 | 0.00 | 0.00 | 46 | 1012.6 |
| 20260831042631 | 77 | 243 | 15.0 | 20.0 | 0.00 | 0.00 | 0.00 | 47 | 1012.4 |
| 20260831042126 | 77 | 236 | 13.0 | 14.0 | 0.00 | 0.00 | 0.00 | 47 | 1012.2 |
| 20260831041621 | 77 | 224 | 12.0 | 15.0 | 0.00 | 0.00 | 0.00 | 49 | 1012.2 |
| 20260831041120 | 77 | 272 | 13.0 | 14.0 | 0.00 | 0.00 | 0.00 | 49 | 1012.1 |
| 20260831040616 | 77 | 255 | 17.0 | 22.0 | 0.00 | 0.00 | 0.00 | 49 | 1012.1 |
| 20260831040109 | 77 | 283 | 14.0 | 18.0 | 0.00 | 0.00 | 0.00 | 49 | 1011.8 |
| 20260831035608 | 78 | 224 | 16.0 | 22.0 | 0.00 | 0.00 | 0.00 | 49 | 1011.8 |
| 20260831035103 | 78 | 239 | 12.0 | 14.0 | 0.00 | 0.00 | 0.00 | 48 | 1011.8 |
| 20260831034602 | 78 | 268 | 19.0 | 22.0 | 0.00 | 0.00 | 0.00 | 48 | 1011.8 |
| 20260831034058 | 78 | 248 | 9.0 | 14.0 | 0.00 | 0.00 | 0.00 | 48 | 1011.8 |
| 20260831033553 | 78 | 236 | 10.0 | 11.0 | 0.00 | 0.00 | 0.00 | 48 | 1011.6 |
| 20260831033049 | 78 | 260 | 13.0 | 15.0 | 0.00 | 0.00 | 0.00 | 48 | 1011.6 |
| 20260831032548 | 78 | 248 | 11.0 | 14.0 | 0.00 | 0.00 | 0.00 | 48 | 1011.5 |
| 20260831032044 | 78 | 241 | 11.0 | 14.0 | 0.00 | 0.00 | 0.00 | 48 | 1011.4 |
| 20260831031543 | 79 | 230 | 11.0 | 13.0 | 0.00 | 0.00 | 0.00 | 48 | 1011.4 |
| 20260831031042 | 79 | 229 | 15.0 | 20.0 | 0.00 | 0.00 | 0.00 | 48 | 1011.3 |
| 20260831030541 | 79 | 246 | 11.0 | 16.0 | 0.00 | 0.00 | 0.00 | 47 | 1011.1 |
| 20260831030041 | 79 | 246 | 14.0 | 18.0 | 0.00 | 0.00 | 0.00 | 47 | 1011.2 |
| 20260831025539 | 80 | 242 | 10.0 | 15.0 | 0.00 | 0.00 | 0.00 | 46 | 1011.2 |
| 20260831025035 | 80 | 263 | 16.0 | 21.0 | 0.00 | 0.00 | 0.00 | 46 | 1011.1 |
| 20260831024530 | 80 | 261 | 13.0 | 16.0 | 0.00 | 0.00 | 0.00 | 46 | 1010.9 |
| 20260831024030 | 80 | 226 | 13.0 | 15.0 | 0.00 | 0.00 | 0.00 | 46 | 1011.2 |
| 20260831023527 | 81 | 248 | 15.0 | 18.0 | 0.00 | 0.00 | 0.00 | 46 | 1011.2 |
| 20260831023022 | 81 | 245 | 18.0 | 21.0 | 0.00 | 0.00 | 0.00 | 45 | 1011.0 |
| 20260831022521 | 82 | 242 | 20.0 | 22.0 | 0.00 | 0.00 | 0.00 | 45 | 1011.1 |
| 20260831022017 | 82 | 226 | 17.0 | 21.0 | 0.00 | 0.00 | 0.00 | 44 | 1011.2 |
| 20260831021515 | 82 | 263 | 15.0 | 17.0 | 0.00 | 0.00 | 0.00 | 43 | 1011.0 |
| 20260831021012 | 83 | 218 | 17.0 | 20.0 | 0.00 | 0.00 | 0.00 | 42 | 1010.9 |
| 20260831020507 | 83 | 246 | 14.0 | 17.0 | 0.00 | 0.00 | 0.00 | 42 | 1011.0 |
| 20260831020001 | 83 | 269 | 17.0 | 21.0 | 0.00 | 0.00 | 0.00 | 40 | 1011.0 |
| 20260831015457 | 84 | 247 | 19.0 | 24.0 | 0.00 | 0.00 | 0.00 | 39 | 1010.9 |
| 20260831014952 | 84 | 253 | 16.0 | 17.0 | 0.00 | 0.00 | 0.00 | 38 | 1010.9 |
| 20260831014447 | 84 | 242 | 18.0 | 22.0 | 0.00 | 0.00 | 0.00 | 37 | 1010.9 |
| 20260831013942 | 84 | 230 | 18.0 | 22.0 | 0.00 | 0.00 | 0.00 | 37 | 1010.7 |
| 20260831013438 | 84 | 266 | 17.0 | 24.0 | 0.00 | 0.00 | 0.00 | 37 | 1010.7 |
| 20260831012938 | 85 | 238 | 18.0 | 22.0 | 0.00 | 0.00 | 0.00 | 37 | 1010.9 |
| 20260831012433 | 85 | 247 | 14.0 | 17.0 | 0.00 | 0.00 | 0.00 | 37 | 1011.1 |
| 20260831011933 | 85 | 258 | 11.0 | 13.0 | 0.00 | 0.00 | 0.00 | 37 | 1011.0 |
| 20260831011428 | 85 | 237 | 16.0 | 17.0 | 0.00 | 0.00 | 0.00 | 36 | 1011.0 |
| 20260831010924 | 85 | 232 | 19.0 | 22.0 | 0.00 | 0.00 | 0.00 | 35 | 1011.1 |
| 20260831010424 | 86 | 239 | 17.0 | 20.0 | 0.00 | 0.00 | 0.00 | 35 | 1010.9 |
| 20260831005919 | 86 | 217 | 15.0 | 16.0 | 0.00 | 0.00 | 0.00 | 34 | 1011.2 |
| 20260831005415 | 86 | 227 | 17.0 | 23.0 | 0.00 | 0.00 | 0.00 | 34 | 1011.1 |
| 20260831004909 | 86 | 253 | 17.0 | 22.0 | 0.00 | 0.00 | 0.00 | 34 | 1011.1 |
| 20260831004406 | 86 | 242 | 17.0 | 21.0 | 0.00 | 0.00 | 0.00 | 34 | 1011.1 |
| 20260831003901 | 86 | 260 | 9.0 | 10.0 | 0.00 | 0.00 | 0.00 | 34 | 1010.7 |
| 20260831003357 | 86 | 265 | 12.0 | 14.0 | 0.00 | 0.00 | 0.00 | 33 | 1011.0 |
| 20260831002856 | 86 | 238 | 12.0 | 14.0 | 0.00 | 0.00 | 0.00 | 33 | 1011.2 |
| 20260831002356 | 86 | 256 | 17.0 | 21.0 | 0.00 | 0.00 | 0.00 | 35 | 1010.9 |
| 20260831001851 | 86 | 239 | 15.0 | 21.0 | 0.00 | 0.00 | 0.00 | 35 | 1010.9 |
| 20260831001351 | 86 | 249 | 17.0 | 20.0 | 0.00 | 0.00 | 0.00 | 34 | 1011.3 |
| 20260831000849 | 86 | 235 | 15.0 | 20.0 | 0.00 | 0.00 | 0.00 | 33 | 1010.9 |
| 20260831000344 | 87 | 244 | 11.0 | 14.0 | 0.00 | 0.00 | 0.00 | 33 | 1011.2 |
| 20260830235842 | 86 | 257 | 10.0 | 13.0 | 0.00 | 0.00 | 0.00 | 34 | 1011.3 |
| 20260830235337 | 86 | 257 | 9.0 | 10.0 | 0.00 | 0.00 | 0.00 | 34 | 1011.1 |
| 20260830234832 | 86 | 236 | 14.0 | 16.0 | 0.00 | 0.00 | 0.00 | 34 | 1011.4 |
| 20260830234328 | 86 | 251 | 19.0 | 22.0 | 0.00 | 0.00 | 0.00 | 34 | 1011.5 |
| 20260830233824 | 86 | 258 | 11.0 | 13.0 | 0.00 | 0.00 | 0.00 | 34 | 1011.4 |
| 20260830233319 | 86 | 275 | 11.0 | 13.0 | 0.00 | 0.00 | 0.00 | 34 | 1011.4 |
| 20260830232815 | 86 | 228 | 12.0 | 16.0 | 0.00 | 0.00 | 0.00 | 35 | 1011.4 |
| 20260830232311 | 87 | 273 | 12.0 | 14.0 | 0.00 | 0.00 | 0.00 | 34 | 1011.4 |
| 20260830231807 | 87 | 240 | 12.0 | 14.0 | 0.00 | 0.00 | 0.00 | 34 | 1011.3 |
| 20260830231307 | 87 | 273 | 10.0 | 17.0 | 0.00 | 0.00 | 0.00 | 34 | 1011.7 |
| 20260830230801 | 87 | 220 | 14.0 | 18.0 | 0.00 | 0.00 | 0.00 | 32 | 1011.7 |
| 20260830230257 | 87 | 251 | 12.0 | 14.0 | 0.00 | 0.00 | 0.00 | 33 | 1011.5 |
| 20260830225756 | 87 | 276 | 17.0 | 20.0 | 0.00 | 0.00 | 0.00 | 33 | 1011.7 |
| 20260830225251 | 87 | 275 | 13.0 | 15.0 | 0.00 | 0.00 | 0.00 | 31 | 1011.4 |
| 20260830224750 | 87 | 259 | 10.0 | 13.0 | 0.00 | 0.00 | 0.00 | 31 | 1011.5 |
| 20260830224245 | 87 | 255 | 10.0 | 13.0 | 0.00 | 0.00 | 0.00 | 31 | 1011.6 |
| 20260830223742 | 87 | 248 | 15.0 | 21.0 | 0.00 | 0.00 | 0.00 | 31 | 1011.5 |
| 20260830223238 | 87 | 246 | 12.0 | 15.0 | 0.00 | 0.00 | 0.00 | 31 | 1011.5 |
| 20260830222732 | 87 | 256 | 14.0 | 17.0 | 0.00 | 0.00 | 0.00 | 30 | 1011.8 |
| 20260830222227 | 88 | 254 | 16.0 | 18.0 | 0.00 | 0.00 | 0.00 | 28 | 1011.9 |
| 20260830221723 | 89 | 234 | 9.0 | 11.0 | 0.00 | 0.00 | 0.00 | 29 | 1011.9 |
| 20260830221220 | 89 | 241 | 22.0 | 25.0 | 0.00 | 0.00 | 0.00 | 29 | 1011.9 |
| 20260830220715 | 89 | 249 | 17.0 | 20.0 | 0.00 | 0.00 | 0.00 | 29 | 1011.7 |
| 20260830220214 | 90 | 269 | 13.0 | 15.0 | 0.00 | 0.00 | 0.00 | 28 | 1011.9 |
| 20260830215713 | 89 | 221 | 13.0 | 17.0 | 0.00 | 0.00 | 0.00 | 28 | 1011.8 |
| 20260830215207 | 89 | 252 | 19.0 | 23.0 | 0.00 | 0.00 | 0.00 | 29 | 1011.9 |
| 20260830214702 | 90 | 279 | 14.0 | 17.0 | 0.00 | 0.00 | 0.00 | 28 | 1011.9 |
| 20260830214156 | 89 | 270 | 16.0 | 20.0 | 0.00 | 0.00 | 0.00 | 28 | 1011.8 |
| 20260830213656 | 89 | 254 | 15.0 | 18.0 | 0.00 | 0.00 | 0.00 | 29 | 1012.1 |
| 20260830213152 | 89 | 232 | 13.0 | 15.0 | 0.00 | 0.00 | 0.00 | 28 | 1011.9 |
| 20260830212648 | 89 | 241 | 13.0 | 17.0 | 0.00 | 0.00 | 0.00 | 28 | 1012.0 |
| 20260830212142 | 89 | 238 | 17.0 | 20.0 | 0.00 | 0.00 | 0.00 | 29 | 1012.4 |
| 20260830211637 | 90 | 261 | 17.0 | 18.0 | 0.00 | 0.00 | 0.00 | 28 | 1012.4 |
| 20260830211136 | 89 | 258 | 19.0 | 22.0 | 0.00 | 0.00 | 0.00 | 28 | 1012.2 |
| 20260830210632 | 89 | 232 | 9.0 | 13.0 | 0.00 | 0.00 | 0.00 | 28 | 1012.1 |
| 20260830210131 | 89 | 281 | 18.0 | 23.0 | 0.00 | 0.00 | 0.00 | 28 | 1012.4 |
| 20260830205628 | 89 | 240 | 18.0 | 22.0 | 0.00 | 0.00 | 0.00 | 26 | 1012.5 |
| 20260830205124 | 88 | 215 | 13.0 | 14.0 | 0.00 | 0.00 | 0.00 | 29 | 1012.5 |
| 20260830204624 | 88 | 242 | 9.0 | 10.0 | 0.00 | 0.00 | 0.00 | 29 | 1012.7 |
| 20260830204123 | 89 | 199 | 9.0 | 11.0 | 0.00 | 0.00 | 0.00 | 29 | 1012.6 |
| 20260830203619 | 89 | 218 | 10.0 | 11.0 | 0.00 | 0.00 | 0.00 | 27 | 1012.5 |
| 20260830203119 | 89 | 225 | 1.0 | 1.0 | 0.00 | 0.00 | 0.00 | 28 | 1012.7 |
| 20260830202619 | 89 | 301 | 10.0 | 11.0 | 0.00 | 0.00 | 0.00 | 28 | 1012.7 |
| 20260830202114 | 89 | 267 | 8.0 | 13.0 | 0.00 | 0.00 | 0.00 | 28 | 1012.8 |
| 20260830201614 | 90 | 259 | 9.0 | 10.0 | 0.00 | 0.00 | 0.00 | 27 | 1012.9 |
| 20260830201109 | 89 | 237 | 7.0 | 10.0 | 0.00 | 0.00 | 0.00 | 31 | 1012.9 |
| 20260830200604 | 89 | 268 | 13.0 | 16.0 | 0.00 | 0.00 | 0.00 | 30 | 1012.8 |
| 20260830200103 | 89 | 254 | 15.0 | 20.0 | 0.00 | 0.00 | 0.00 | 28 | 1012.9 |
| 20260830195559 | 89 | 219 | 7.0 | 10.0 | 0.00 | 0.00 | 0.00 | 29 | 1012.7 |
| 20260830195057 | 89 | 245 | 10.0 | 15.0 | 0.00 | 0.00 | 0.00 | 29 | 1013.1 |
| 20260830194556 | 89 | 250 | 8.0 | 11.0 | 0.00 | 0.00 | 0.00 | 28 | 1012.9 |
| 20260830194051 | 89 | 259 | 9.0 | 10.0 | 0.00 | 0.00 | 0.00 | 27 | 1012.9 |
| 20260830193550 | 88 | 238 | 7.0 | 8.0 | 0.00 | 0.00 | 0.00 | 27 | 1013.1 |
| 20260830193046 | 88 | 237 | 8.0 | 9.0 | 0.00 | 0.00 | 0.00 | 28 | 1013.3 |
| 20260830192542 | 89 | 228 | 12.0 | 14.0 | 0.00 | 0.00 | 0.00 | 26 | 1013.1 |
| 20260830192041 | 89 | 237 | 7.0 | 8.0 | 0.00 | 0.00 | 0.00 | 26 | 1012.9 |
| 20260830191536 | 88 | 261 | 5.0 | 7.0 | 0.00 | 0.00 | 0.00 | 27 | 1013.0 |
| 20260830191032 | 87 | 283 | 5.0 | 7.0 | 0.00 | 0.00 | 0.00 | 27 | 1013.2 |
| 20260830190527 | 87 | 261 | 6.0 | 7.0 | 0.00 | 0.00 | 0.00 | 28 | 1013.4 |
| 20260830190022 | 87 | 297 | 7.0 | 9.0 | 0.00 | 0.00 | 0.00 | 27 | 1013.4 |
| 20260830185516 | 87 | 282 | 11.0 | 13.0 | 0.00 | 0.00 | 0.00 | 29 | 1013.5 |
| 20260830185012 | 86 | 227 | 4.0 | 6.0 | 0.00 | 0.00 | 0.00 | 30 | 1013.5 |
| 20260830184510 | 86 | 254 | 9.0 | 11.0 | 0.00 | 0.00 | 0.00 | 31 | 1013.6 |
| 20260830184000 | 86 | 236 | 7.0 | 8.0 | 0.00 | 0.00 | 0.00 | 30 | 1013.6 |
| 20260830183500 | 86 | 258 | 9.0 | 13.0 | 0.00 | 0.00 | 0.00 | 31 | 1013.3 |
| 20260830182955 | 86 | 240 | 9.0 | 10.0 | 0.00 | 0.00 | 0.00 | 29 | 1013.5 |
| 20260830182451 | 86 | 219 | 11.0 | 11.0 | 0.00 | 0.00 | 0.00 | 30 | 1013.4 |
| 20260830181947 | 86 | 163 | 9.0 | 10.0 | 0.00 | 0.00 | 0.00 | 30 | 1013.3 |
| 20260830181443 | 85 | 230 | 14.0 | 15.0 | 0.00 | 0.00 | 0.00 | 31 | 1013.2 |
| 20260830180936 | 86 | 255 | 13.0 | 14.0 | 0.00 | 0.00 | 0.00 | 31 | 1013.4 |
| 20260830180436 | 85 | 193 | 11.0 | 14.0 | 0.00 | 0.00 | 0.00 | 32 | 1013.4 |
| 20260830175935 | 85 | 225 | 9.0 | 10.0 | 0.00 | 0.00 | 0.00 | 33 | 1013.5 |
| 20260830175429 | 85 | 221 | 11.0 | 13.0 | 0.00 | 0.00 | 0.00 | 32 | 1013.4 |
| 20260830174924 | 85 | 263 | 10.0 | 14.0 | 0.00 | 0.00 | 0.00 | 31 | 1013.3 |
| 20260830174420 | 85 | 221 | 17.0 | 20.0 | 0.00 | 0.00 | 0.00 | 30 | 1013.2 |
| 20260830173915 | 85 | 235 | 13.0 | 16.0 | 0.00 | 0.00 | 0.00 | 31 | 1013.3 |
| 20260830173411 | 85 | 232 | 17.0 | 21.0 | 0.00 | 0.00 | 0.00 | 29 | 1013.4 |
| 20260830172906 | 84 | 193 | 12.0 | 14.0 | 0.00 | 0.00 | 0.00 | 30 | 1013.5 |
| 20260830172403 | 84 | 228 | 13.0 | 17.0 | 0.00 | 0.00 | 0.00 | 31 | 1013.1 |
| 20260830171858 | 84 | 244 | 13.0 | 15.0 | 0.00 | 0.00 | 0.00 | 31 | 1013.4 |
| 20260830171354 | 84 | 254 | 10.0 | 13.0 | 0.00 | 0.00 | 0.00 | 32 | 1013.3 |
| 20260830170848 | 84 | 249 | 13.0 | 16.0 | 0.00 | 0.00 | 0.00 | 32 | 1013.3 |
| 20260830170348 | 83 | 256 | 4.0 | 5.0 | 0.00 | 0.00 | 0.00 | 35 | 1013.5 |
| 20260830165846 | 81 | 140 | 1.0 | 2.0 | 0.00 | 0.00 | 0.00 | 39 | 1013.5 |
| 20260830165343 | 80 | 197 | 1.0 | 1.0 | 0.00 | 0.00 | 0.00 | 41 | 1013.3 |
| 20260830164839 | 80 | 103 | 2.0 | 3.0 | 0.00 | 0.00 | 0.00 | 42 | 1013.3 |
| 20260830164334 | 79 | 151 | 3.0 | 5.0 | 0.00 | 0.00 | 0.00 | 42 | 1013.4 |
| 20260830163831 | 79 | 161 | 4.0 | 5.0 | 0.00 | 0.00 | 0.00 | 43 | 1013.4 |
| 20260830163326 | 78 | 194 | 3.0 | 3.0 | 0.00 | 0.00 | 0.00 | 44 | 1013.5 |
| 20260830162820 | 79 | 196 | 1.0 | 1.0 | 0.00 | 0.00 | 0.00 | 43 | 1013.4 |
| 20260830162317 | 78 | 307 | 1.0 | 1.0 | 0.00 | 0.00 | 0.00 | 45 | 1013.4 |
| 20260830161818 | 78 | 211 | 3.0 | 3.0 | 0.00 | 0.00 | 0.00 | 43 | 1013.6 |
| 20260830161316 | 78 | 217 | 2.0 | 2.0 | 0.00 | 0.00 | 0.00 | 44 | 1013.5 |
| 20260830160812 | 78 | 23 | 1.0 | 2.0 | 0.00 | 0.00 | 0.00 | 43 | 1013.3 |
| 20260830160307 | 78 | 206 | 3.0 | 3.0 | 0.00 | 0.00 | 0.00 | 43 | 1013.8 |
| 20260830155803 | 77 | 243 | 0.0 | 0.0 | 0.00 | 0.00 | 0.00 | 44 | 1013.5 |
| 20260830155259 | 77 | 228 | 0.0 | 0.0 | 0.00 | 0.00 | 0.00 | 45 | 1013.5 |
| 20260830154759 | 76 | 236 | 0.0 | 0.0 | 0.00 | 0.00 | 0.00 | 45 | 1013.6 |
| 20260830154255 | 76 | 242 | 0.0 | 0.0 | 0.00 | 0.00 | 0.00 | 45 | 1013.6 |
| 20260830153751 | 75 | 247 | 0.0 | 0.0 | 0.00 | 0.00 | 0.00 | 46 | 1013.6 |
| 20260830153247 | 75 | 275 | 1.0 | 1.0 | 0.00 | 0.00 | 0.00 | 47 | 1013.6 |
| 20260830152744 | 74 | 325 | 3.0 | 3.0 | 0.00 | 0.00 | 0.00 | 48 | 1013.9 |
| 20260830152239 | 74 | 273 | 0.0 | 0.0 | 0.00 | 0.00 | 0.00 | 49 | 1013.8 |
| 20260830151734 | 73 | 240 | 0.0 | 0.0 | 0.00 | 0.00 | 0.00 | 50 | 1013.9 |
| 20260830151233 | 74 | 53 | 1.0 | 1.0 | 0.00 | 0.00 | 0.00 | 50 | 1013.8 |
| 20260830150729 | 75 | 74 | 2.0 | 3.0 | 0.00 | 0.00 | 0.00 | 49 | 1013.9 |
| 20260830150228 | 77 | 354 | 4.0 | 5.0 | 0.00 | 0.00 | 0.00 | 48 | 1013.9 |
| 20260830145723 | 75 | 245 | 0.0 | 0.0 | 0.00 | 0.00 | 0.00 | 50 | 1013.6 |
| 20260830145218 | 74 | 240 | 1.0 | 1.0 | 0.00 | 0.00 | 0.00 | 52 | 1013.9 |
| 20260830144718 | 72 | 248 | 1.0 | 1.0 | 0.00 | 0.00 | 0.00 | 54 | 1013.6 |
| 20260830144214 | 73 | 249 | 0.0 | 1.0 | 0.00 | 0.00 | 0.00 | 53 | 1013.5 |
| 20260830143710 | 73 | 194 | 0.0 | 0.0 | 0.00 | 0.00 | 0.00 | 52 | 1013.5 |
| 20260830143208 | 73 | 203 | 1.0 | 2.0 | 0.00 | 0.00 | 0.00 | 52 | 1013.4 |
| 20260830142703 | 71 | 244 | 0.0 | 0.0 | 0.00 | 0.00 | 0.00 | 54 | 1013.6 |
| 20260830142158 | 71 | 255 | 0.0 | 0.0 | 0.00 | 0.00 | 0.00 | 55 | 1013.5 |
| 20260830141654 | 71 | 244 | 0.0 | 0.0 | 0.00 | 0.00 | 0.00 | 55 | 1013.2 |
| 20260830141149 | 71 | 245 | 0.0 | 0.0 | 0.00 | 0.00 | 0.00 | 55 | 1013.5 |
| 20260830140644 | 71 | 229 | 0.0 | 0.0 | 0.00 | 0.00 | 0.00 | 54 | 1013.4 |
| 20260830140139 | 70 | 235 | 0.0 | 0.0 | 0.00 | 0.00 | 0.00 | 56 | 1013.5 |
| 20260830135633 | 70 | 231 | 0.0 | 0.0 | 0.00 | 0.00 | 0.00 | 56 | 1013.4 |
| 20260830135128 | 70 | 247 | 0.0 | 0.0 | 0.00 | 0.00 | 0.00 | 55 | 1013.5 |
| 20260830134624 | 70 | 244 | 0.0 | 0.0 | 0.00 | 0.00 | 0.00 | 54 | 1013.4 |
| 20260830134120 | 71 | 243 | 0.0 | 0.0 | 0.00 | 0.00 | 0.00 | 53 | 1013.5 |
| 20260830133615 | 71 | 244 | 2.0 | 2.0 | 0.00 | 0.00 | 0.00 | 50 | 1013.1 |
| 20260830133110 | 70 | 249 | 0.0 | 0.0 | 0.00 | 0.00 | 0.00 | 55 | 1013.3 |
| 20260830132607 | 70 | 247 | 0.0 | 0.0 | 0.00 | 0.00 | 0.00 | 55 | 1013.3 |
| 20260830132102 | 71 | 51 | 2.0 | 2.0 | 0.00 | 0.00 | 0.00 | 51 | 1013.1 |
| 20260830131601 | 72 | 269 | 0.0 | 0.0 | 0.00 | 0.00 | 0.00 | 51 | 1013.0 |
| 20260830131055 | 72 | 222 | 1.0 | 1.0 | 0.00 | 0.00 | 0.00 | 52 | 1013.0 |
| 20260830130550 | 72 | 219 | 1.0 | 1.0 | 0.00 | 0.00 | 0.00 | 51 | 1013.3 |
| 20260830130045 | 72 | 217 | 1.0 | 1.0 | 0.00 | 0.00 | 0.00 | 48 | 1012.8 |
| 20260830125540 | 71 | 285 | 2.0 | 2.0 | 0.00 | 0.00 | 0.00 | 52 | 1013.1 |
| 20260830125039 | 73 | 184 | 3.0 | 3.0 | 0.00 | 0.00 | 0.00 | 51 | 1012.9 |
| 20260830124538 | 73 | 215 | 2.0 | 2.0 | 0.00 | 0.00 | 0.00 | 49 | 1012.9 |
| 20260830124033 | 72 | 208 | 3.0 | 3.0 | 0.00 | 0.00 | 0.00 | 49 | 1012.8 |
| 20260830123531 | 72 | 284 | 3.0 | 5.0 | 0.00 | 0.00 | 0.00 | 52 | 1012.8 |
| 20260830123026 | 71 | 192 | 3.0 | 3.0 | 0.00 | 0.00 | 0.00 | 52 | 1012.7 |
| 20260830122522 | 71 | 192 | 0.0 | 1.0 | 0.00 | 0.00 | 0.00 | 53 | 1012.8 |
| 20260830122018 | 71 | 202 | 1.0 | 1.0 | 0.00 | 0.00 | 0.00 | 53 | 1012.8 |
| 20260830121514 | 71 | 110 | 2.0 | 2.0 | 0.00 | 0.00 | 0.00 | 51 | 1012.8 |
| 20260830121013 | 72 | 215 | 0.0 | 1.0 | 0.00 | 0.00 | 0.00 | 51 | 1012.9 |
| 20260830120509 | 72 | 172 | 3.0 | 3.0 | 0.00 | 0.00 | 0.00 | 51 | 1012.7 |
| 20260830120006 | 71 | 203 | 2.0 | 2.0 | 0.00 | 0.00 | 0.00 | 52 | 1012.8 |
| 20260830115501 | 72 | 195 | 1.0 | 2.0 | 0.00 | 0.00 | 0.00 | 51 | 1012.5 |
| 20260830114956 | 71 | 152 | 2.0 | 2.0 | 0.00 | 0.00 | 0.00 | 51 | 1012.9 |
| 20260830114453 | 71 | 171 | 3.0 | 3.0 | 0.00 | 0.00 | 0.00 | 52 | 1012.8 |
| 20260830113952 | 71 | 153 | 2.0 | 2.0 | 0.00 | 0.00 | 0.00 | 53 | 1012.8 |
| 20260830113447 | 72 | 219 | 1.0 | 2.0 | 0.00 | 0.00 | 0.00 | 52 | 1012.7 |
| 20260830112943 | 72 | 214 | 0.0 | 1.0 | 0.00 | 0.00 | 0.00 | 52 | 1012.6 |
| 20260830112439 | 74 | 280 | 1.0 | 1.0 | 0.00 | 0.00 | 0.00 | 49 | 1012.7 |
| 20260830111935 | 73 | 226 | 3.0 | 3.0 | 0.00 | 0.00 | 0.00 | 49 | 1012.9 |
| 20260830111430 | 73 | 227 | 3.0 | 3.0 | 0.00 | 0.00 | 0.00 | 49 | 1012.7 |
| 20260830110926 | 73 | 246 | 2.0 | 2.0 | 0.00 | 0.00 | 0.00 | 49 | 1012.7 |
| 20260830110421 | 73 | 244 | 2.0 | 2.0 | 0.00 | 0.00 | 0.00 | 48 | 1012.9 |
| 20260830105920 | 73 | 251 | 1.0 | 2.0 | 0.00 | 0.00 | 0.00 | 48 | 1012.8 |
| 20260830105417 | 73 | 249 | 3.0 | 3.0 | 0.00 | 0.00 | 0.00 | 47 | 1012.7 |
| 20260830104913 | 74 | 247 | 2.0 | 2.0 | 0.00 | 0.00 | 0.00 | 45 | 1012.8 |
| 20260830104409 | 74 | 234 | 3.0 | 3.0 | 0.00 | 0.00 | 0.00 | 46 | 1012.8 |
| 20260830103908 | 74 | 245 | 2.0 | 2.0 | 0.00 | 0.00 | 0.00 | 46 | 1013.0 |
| 20260830103404 | 74 | 246 | 2.0 | 2.0 | 0.00 | 0.00 | 0.00 | 45 | 1012.9 |
| 20260830102902 | 74 | 284 | 0.0 | 0.0 | 0.00 | 0.00 | 0.00 | 45 | 1012.8 |
| 20260830102358 | 75 | 248 | 0.0 | 0.0 | 0.00 | 0.00 | 0.00 | 44 | 1012.8 |
| 20260830101854 | 75 | 250 | 0.0 | 0.0 | 0.00 | 0.00 | 0.00 | 43 | 1013.0 |
| 20260830101349 | 75 | 262 | 1.0 | 1.0 | 0.00 | 0.00 | 0.00 | 43 | 1012.7 |
| 20260830100849 | 75 | 264 | 3.0 | 5.0 | 0.00 | 0.00 | 0.00 | 42 | 1012.8 |
| 20260830100348 | 75 | 249 | 0.0 | 1.0 | 0.00 | 0.00 | 0.00 | 43 | 1012.8 |
| 20260830095846 | 76 | 267 | 2.0 | 2.0 | 0.00 | 0.00 | 0.00 | 42 | 1012.9 |
| 20260830095343 | 76 | 256 | 3.0 | 3.0 | 0.00 | 0.00 | 0.00 | 42 | 1012.9 |
| 20260830094838 | 75 | 245 | 4.0 | 5.0 | 0.00 | 0.00 | 0.00 | 43 | 1012.9 |
| 20260830094335 | 75 | 245 | 2.0 | 2.0 | 0.00 | 0.00 | 0.00 | 43 | 1012.7 |
| 20260830093830 | 75 | 247 | 1.0 | 2.0 | 0.00 | 0.00 | 0.00 | 44 | 1012.8 |
| 20260830093325 | 75 | 249 | 1.0 | 1.0 | 0.00 | 0.00 | 0.00 | 44 | 1012.9 |
| 20260830092820 | 76 | 242 | 0.0 | 0.0 | 0.00 | 0.00 | 0.00 | 42 | 1012.9 |
| 20260830092316 | 76 | 238 | 0.0 | 0.0 | 0.00 | 0.00 | 0.00 | 43 | 1012.8 |
| 20260830091813 | 77 | 242 | 0.0 | 0.0 | 0.00 | 0.00 | 0.00 | 42 | 1012.8 |
| 20260830091312 | 77 | 226 | 1.0 | 1.0 | 0.00 | 0.00 | 0.00 | 41 | 1012.6 |
| 20260830090811 | 77 | 226 | 1.0 | 2.0 | 0.00 | 0.00 | 0.00 | 40 | 1012.7 |
| 20260830090307 | 78 | 241 | 2.0 | 2.0 | 0.00 | 0.00 | 0.00 | 39 | 1012.7 |
| 20260830085806 | 78 | 242 | 1.0 | 1.0 | 0.00 | 0.00 | 0.00 | 38 | 1012.7 |
| 20260830085302 | 78 | 240 | 2.0 | 2.0 | 0.00 | 0.00 | 0.00 | 37 | 1012.6 |
| 20260830084757 | 79 | 236 | 2.0 | 2.0 | 0.00 | 0.00 | 0.00 | 36 | 1012.4 |